SCP
0 0 0 0 0 0 0 0 0 0 0 0 0 0 0 0 0 0 0 0 0 0 0 0 0 0 0 0 0 0 0 0 0 0 0 0 0 0 0 0 0 0 0 0
0 0 0 0 0 0 0 0 0 0 0 0 0 0 0 0 0 0 0 0 0 0 0 0 0 0 0 0 0 0 0 0 0 0 0 0 0 0 0 0 0 0 0 0
0 0 0 0 0 0 0 0 0 0 0 0 0 0 0 0 0 0 0 0 0 0 0 0 0 0 0 0 0 0 0 0 0 0 0 0 0 0 0 0 0 0 0 0
0 0 0 0 0 0 0 0 0 0 0 0 0 0 0 0 0 0 0 0 0 0 0 0 0 0 0 0 0 0 0 0 0 0 0 0 0 0 0 0 0 0 0 0
0 0 0 -0 0 0 0 0 0 0 0 0 0 0 0 0 0 0 0 0 0 0 0 0 0 0 0 0 0 0 0 0 0 0 0 0 0 0 0 0 0 0 0 0
0 0 0 0 0 0 0 0 0 0 0 0 0 0 0 0 0 0 0 0 0 0 0 0 0 0 0 0 0 0 0 0 0 0 0 0 0 0 0 0 0 0 0 0
0 0 0 0 0 0 0 0 0 0 0 0 0 0 0 0 0 0 0 0 0 0 0 0 0 0 0 0 0 0 0 0 0 0 0 0 0 0 0 0 0 0 0 0
0 0 0 0 0 0 0 0 0 0 0 0 0 0 0 0 0 0 0 0 0 0 0 0 0 0 0 0 0 0 0 0 0 0 0 0 0 0 0 0 0 0 0 0
0 0 0 0 0 0 0 0 0 0 0 0 0 0 0 0 0 0 0 0 0 0 0 0 0 0 0 0 0 0 0 0 0 0 0 0 0 0 0 0 0 0 0 0
0 0 0 0 0 0 0 0 0 0 0 0 0 0 0 0 0 0 0 0 0 0 0 0 0 0 0 0 0 0 0 0 0 0 0 0 0 0 0 0 0 0 0 0
0 0 0 0 0 0 0 0 0 0 0 0 0 0 0 0 0 0 0 0 0 0 0 0 0 0 0 0 0 0 0 0 0 0 0 0 0 0 0 0 0 0 0 0
0 0 0 0 0 0 0 0 0 0 0 0 0 0 0 0 0 0 0 0 0 0 0 0 0 0 0 0 0 0 0 0 0 0 0 0 0 0 0 0 0 0 0 0
0 0 0 0 0 0 0 0 0 0 0 0 0 0 0 0 0 0 0 0 0 0 0 0 0 0 0 0 0 0 0 0 0 0 0 0 0 0 0 0 0 0 0 -0
0 0 0 0 0 0 0 0 0 0 0 0 0 0 0 0 0 0 0 0 0 0 0 0 0 0 0 0 0 0 0 0 0 0 0 0 0 0 0 0 0 0 0 0
0 0 0 0 0 0 0 0 0 0 0 0 0 0 0 0 0 0 0 0 0 0 0 0 0 0 0 0 0 0 0 0 0 0 0 0 0 0 0 0 0 0 0 0
0 0 0 0 0 0 0 0 0 0 0 0 0 0 0 0 0 0 0 0 0 0 0 0 0 0 0 0 0 0 0 0 0 0 0 0 0 0 0 0 0 0 0 0
0 0 0 0 0 0 0 0 0 0 0 0 0 0 0 -0 -0 -0 0 0 0 0 0 0 0 0 0 -0 -0 0 0 0 0 0 0 0 0 0 0 0 0 0 0 0
0 0 0 0 0 0 0 0 0 0 -0 -0 0 -0 0 0 0 0 0 0 0 0 0 0 0 0 0 0 0 0 0 0 0 0 0 0 0 0 0 0 0 0 0 0
0 0 0 0 0 0 -0 -0 -0 0 0 0 0 0 0 0 0 0 0 0 0 0 0 0 0 0 0 0 0 0 0 0 0 0 0 0 0 0 0 0 0 0 0 0
0 0 0 0 0 0 -0 -0 0 0 0 -0 -0 0 0 0 0 0 0 0 0 0 0 0 0 0 0 0 0 0 0 0 0 0 0 0 0 0 0 0 0 0 0 0
0 0 0 -0 -0 -0 -0 -0 -0 -0 -0 0 0 -0 -0 0 0 0 0 0 0 0 0 0 0 0 0 0 0 0 0 0 0 0 0 0 0 0 0 0 0 0 0 0
-0 0 0 -0 -0 -0 -0 -0 -0 -0 -0 -0 0 0 0 0 0 0 0 0 0 0 0 0 0 0 0 0 0 0 0 0 0 0 0 0 0 0 0 0 0 0 0 0
-0 -0 -0 -0 -0 -0 -0 -0 -0 0 0 0 0 0 0 0 0 0 0 0 0 0 0 0 0 0 0 0 0 0 0 0 0 0 0 0 0 0 0 0 0 0 0 0
-0 -0 -0 -0 0 -0 -0 0 0 0 0 0 0 0 0 0 0 0 0 0 0 0 0 0 0 0 0 0 0 0 0 0 0 0 0 0 0 0 0 0 0 0 0 0
-0 -0 -0 -0 -0 0 0 0 0 0 0 0 0 0 0 0 0 0 0 0 0 0 0 0 0 0 0 0 0 0 0 0 0 0 0 0 0 0 0 0 0 0 0 0
-0 -0 -0 -0 0 0 0 0 0 0 0 0 0 0 0 0 0 0 0 0 0 0 0 0 0 0 0 0 0 0 0 0 0 0 0 0 0 0 0 0 0 0 0 0
0 0 0 0 0 0 0 0 0 0 0 0 0 0 0 0 0 0 0 0 0 0 0 0 0 0 0 0 0 0 0 0 0 0 0 0 0 0 0 0 0 0 0 0
Wind_Speed_500mb
4 4 7 7 19 21 33 31 19 15 24 15 18 22 39 40 33 22 21 13 19 20 23 22 21 22 24 25 28 32 37 41 43 42 39 37 35 32 29 26 23 21 19 18
3 5 3 7 18 23 34 25 25 15 18 16 41 28 36 44 46 32 37 33 24 25 25 23 22 20 17 17 21 27 34 40 42 43 40 37 34 31 28 26 25 23 20 16
6 4 8 19 29 25 18 22 31 36 40 15 15 34 47 51 58 58 57 59 47 37 32 24 19 16 17 17 21 26 30 37 42 42 41 38 34 31 29 27 25 22 19 17
5 4 9 6 5 12 40 28 34 25 14 41 51 63 69 73 77 80 72 58 46 38 31 25 20 18 20 24 32 36 37 38 41 45 44 40 36 31 29 27 24 23 22 20
9 6 15 21 14 16 21 29 32 36 33 29 45 38 48 66 64 63 49 40 41 35 33 25 18 18 27 34 40 42 43 42 42 46 46 42 36 31 29 29 27 27 26 22
5 9 17 10 4 19 14 18 24 54 31 32 32 8 27 53 50 46 46 43 43 40 32 27 23 28 34 40 47 47 44 43 42 45 45 41 35 33 29 28 28 31 29 27
7 7 17 18 14 29 12 13 7 46 53 40 16 41 27 19 20 32 36 43 42 38 31 26 32 40 46 48 49 44 46 45 45 45 44 39 37 36 33 33 34 34 32 26
6 4 23 17 16 21 12 8 8 23 43 45 52 44 34 28 21 21 32 38 38 38 35 38 47 52 52 52 47 47 46 47 47 46 46 45 42 39 40 38 37 34 31 28
21 15 4 43 11 27 22 17 24 23 22 28 23 27 28 26 28 30 30 35 39 43 48 57 58 55 56 51 49 50 50 49 47 47 47 45 44 44 42 40 36 35 33 31
8 5 14 25 47 38 43 36 28 20 20 25 28 26 24 21 28 38 38 39 43 56 66 65 57 57 58 55 54 56 53 49 48 50 48 47 47 46 42 40 38 38 35 31
7 8 10 26 43 51 52 51 52 51 36 24 25 28 33 37 36 36 43 51 58 64 68 70 61 63 64 58 58 56 52 50 50 51 51 50 48 44 40 37 33 30 28 27
10 29 26 14 19 29 50 61 55 49 44 44 41 41 39 43 48 52 61 66 70 73 73 72 66 64 63 62 60 58 56 54 56 55 54 50 46 46 41 36 37 36 34 30
8 16 26 21 20 15 17 20 31 35 37 41 42 47 51 59 68 67 69 71 70 64 64 63 60 62 64 62 61 60 59 55 56 57 54 52 52 53 52 47 44 37 33 30
30 22 35 47 40 24 21 41 53 58 55 53 58 60 63 66 71 77 78 70 65 63 62 61 61 66 63 61 61 59 58 55 54 55 53 53 55 54 50 47 41 39 39 35
49 50 56 59 58 56 56 55 55 62 62 62 57 61 66 69 72 71 66 64 65 66 63 63 64 61 57 58 59 57 55 53 53 51 51 53 53 51 47 40 34 31 31 30
33 36 42 49 61 62 62 65 63 68 64 61 60 59 60 64 68 66 64 65 68 64 56 57 56 54 55 53 52 53 51 49 49 50 52 54 54 53 48 45 42 36 33 30
43 46 42 47 48 50 50 48 50 54 55 58 59 53 53 55 59 60 59 60 58 56 49 50 51 46 43 44 47 50 50 50 50 53 56 58 58 54 50 45 42 39 32 33
29 31 33 37 42 46 50 49 51 54 58 57 56 54 54 56 54 46 44 47 50 46 43 43 35 32 35 39 44 46 48 52 58 60 60 59 55 49 46 44 42 40 38 39
16 20 23 24 27 33 40 43 44 45 45 46 47 46 44 45 43 41 42 43 42 40 33 30 30 33 37 40 44 48 52 57 60 60 57 54 53 51 49 47 44 42 42 42
25 25 25 27 31 34 37 38 40 37 38 39 37 41 41 35 32 34 35 36 29 28 28 27 32 34 38 44 49 54 58 61 61 59 58 57 55 52 48 46 45 45 45 42
24 28 32 35 35 35 39 37 34 30 28 27 22 22 29 31 30 29 35 36 29 28 33 33 33 38 47 52 57 60 62 62 62 61 60 58 55 52 50 48 48 46 44 43
32 30 31 32 32 31 34 36 40 36 30 29 29 26 27 30 34 35 35 35 30 32 38 39 41 46 50 54 59 61 62 62 62 61 60 57 54 53 52 50 48 45 43 42
45 49 51 47 45 40 33 31 33 37 35 32 32 31 33 34 35 38 36 34 36 38 41 43 46 51 54 57 59 61 62 63 63 62 59 57 55 53 50 48 46 44 44 42
50 50 51 50 49 44 39 33 36 33 34 33 32 34 36 34 38 38 36 37 35 38 43 47 50 55 58 60 62 63 63 64 64 62 60 57 56 53 52 50 49 46 44 42
53 53 55 54 51 49 44 40 41 35 35 35 34 36 37 36 36 37 42 41 40 40 45 51 55 57 60 62 65 66 66 66 65 63 62 61 58 55 52 51 49 46 45 44
60 61 59 56 56 56 54 52 49 44 40 38 35 37 39 36 36 39 42 48 50 48 48 55 60 62 64 66 68 69 69 68 68 67 65 62 59 57 56 53 51 50 48 44
41 42 46 49 44 46 49 52 53 51 49 45 45 39 41 40 40 42 45 50 54 54 57 57 61 64 64 67 69 70 71 71 71 69 67 65 62 60 58 55 52 51 50 48
Wind_Direction_500mb
144 132 143 185 196 197 215 221 220 204 214 211 202 196 195 186 196 233 229 246 224 231 238 244 252 259 268 272 271 272 272 272 274 275 275 277 277 279 280 279 276 274 272 271
99 49 61 237 218 214 225 231 244 224 232 218 216 206 193 204 214 238 262 271 274 252 252 263 262 260 260 267 278 277 277 275 271 269 270 271 273 274 274 271 268 267 267 268
203 342 60 286 209 209 211 211 214 226 229 155 201 195 209 216 232 243 255 270 268 254 256 248 231 250 267 274 289 298 296 287 278 271 268 269 267 266 266 264 263 260 258 259
133 102 228 248 311 234 213 223 215 233 183 204 220 220 226 234 243 260 258 262 243 242 235 230 242 271 287 299 298 292 288 281 274 267 262 260 258 258 257 255 252 249 246 242
162 203 301 279 187 176 181 241 218 218 224 217 225 234 248 245 246 252 248 243 237 233 221 228 241 282 303 306 301 294 289 283 271 263 257 254 252 250 247 245 242 237 234 235
126 183 220 255 265 150 92 278 217 210 214 187 163 202 249 251 249 242 236 238 232 219 223 233 261 289 300 306 298 289 287 282 271 260 252 247 245 244 242 238 234 234 231 240
174 220 282 239 162 142 110 233 289 203 210 174 189 223 246 252 250 240 233 227 218 221 230 254 283 292 293 282 281 282 277 275 268 256 247 241 237 235 233 229 228 228 235 234
132 170 263 166 122 166 208 172 115 192 212 215 231 239 240 250 256 231 214 211 220 228 242 272 283 282 279 273 277 273 272 269 261 250 241 234 231 227 224 224 223 226 225 217
188 208 197 177 191 198 175 206 221 219 214 214 226 249 243 238 239 217 221 229 233 240 263 273 275 275 268 267 269 271 267 263 253 242 235 230 228 224 220 221 220 221 213 214
107 255 213 204 214 213 230 240 239 238 248 250 243 236 236 229 229 231 244 247 247 264 269 273 274 276 261 260 264 263 261 256 247 238 232 226 223 223 222 219 214 214 216 217
270 290 290 230 223 230 238 248 252 256 265 254 259 250 252 255 243 248 257 270 272 273 272 276 277 269 252 259 260 258 256 249 240 234 228 224 226 226 219 214 214 216 219 221
221 193 210 222 247 250 247 250 260 269 278 277 276 274 268 262 263 272 277 277 274 273 274 274 270 259 253 259 256 254 250 244 237 231 227 226 221 211 205 203 205 210 207 213
225 205 231 246 245 247 248 247 279 283 280 276 272 271 267 268 274 270 272 276 273 273 274 270 264 256 258 257 252 249 245 239 233 229 226 222 212 207 199 198 206 208 212 215
237 247 264 262 269 275 276 284 283 282 278 276 276 273 268 267 271 275 276 280 277 275 270 265 261 259 258 253 249 245 242 239 233 230 225 217 210 205 204 209 205 206 208 214
255 258 270 283 288 284 283 286 285 282 283 283 283 279 277 277 277 279 277 273 272 268 265 266 264 262 257 251 245 242 235 230 225 223 220 211 206 203 206 206 205 207 203 214
288 282 277 278 284 285 283 283 284 284 286 285 282 275 274 274 272 270 267 263 264 269 271 266 265 264 261 251 238 230 225 223 220 215 207 203 201 203 203 203 208 212 214 216
285 285 287 284 288 292 291 293 290 290 290 284 283 282 275 272 269 268 268 265 265 264 264 267 271 266 249 234 225 221 217 213 207 202 199 199 202 204 206 209 214 219 220 226
290 288 286 282 285 289 294 292 288 284 283 284 279 272 268 268 274 278 270 263 259 262 266 270 263 243 229 220 216 212 208 203 197 196 196 200 204 206 208 213 217 221 224 231
327 315 304 302 298 299 299 303 301 298 294 286 280 276 272 268 270 265 257 255 256 260 269 260 244 229 217 210 206 204 200 196 195 196 199 202 203 207 211 215 220 225 230 234
6 353 350 342 337 331 326 321 312 307 300 291 285 280 274 268 264 259 255 255 259 259 251 241 234 221 208 201 200 196 194 195 197 199 202 204 208 212 216 221 225 228 232 238
352 346 341 338 337 338 332 332 327 319 317 311 304 296 285 273 265 256 251 249 251 246 238 229 216 205 199 194 193 194 195 198 201 203 206 209 212 215 220 225 228 231 236 240
340 339 333 314 313 327 331 333 329 322 316 312 305 296 286 279 270 261 254 250 240 234 230 219 207 201 202 198 198 200 201 204 206 208 211 214 218 222 226 229 232 235 239 242
315 310 311 319 319 307 314 318 323 326 321 312 303 293 283 271 261 256 253 248 239 231 224 216 209 206 206 206 207 207 208 210 211 213 217 221 225 228 230 234 237 239 241 244
308 299 296 293 294 297 285 299 303 313 316 312 306 296 290 283 272 262 252 242 238 234 227 219 215 214 214 214 213 214 215 215 217 219 222 226 229 231 233 236 238 242 245 247
304 298 294 292 285 282 284 278 279 292 300 307 309 302 291 279 271 265 255 242 237 232 227 222 220 221 222 222 220 220 220 221 222 224 226 229 232 234 238 241 243 246 248 251
298 295 290 285 285 285 283 285 282 274 280 293 298 296 288 281 270 260 251 248 239 230 227 226 226 227 227 227 226 226 226 226 226 227 230 232 234 237 241 243 244 247 250 252
312 310 304 294 289 286 285 280 279 277 275 281 282 285 281 276 269 259 250 245 243 239 232 230 230 232 232 233 232 231 231 231 230 232 233 235 236 240 243 245 248 250 251 252
Wind_Speed_850mb
4 4 7 7 19 21 33 31 19 15 24 15 18 22 39 40 33 22 21 13 19 20 23 22 21 22 24 25 28 32 37 41 43 42 39 37 35 32 29 26 23 21 19 18
3 5 3 7 18 23 34 25 25 15 18 16 41 28 36 44 46 32 37 33 24 25 25 23 22 20 17 17 21 27 34 40 42 43 40 37 34 31 28 26 25 23 20 16
6 4 8 19 29 25 18 22 31 36 40 15 15 34 47 51 58 58 57 59 47 37 32 24 19 16 17 17 21 26 30 37 42 42 41 38 34 31 29 27 25 22 19 17
5 4 9 6 5 12 40 28 34 25 14 41 51 63 69 73 77 80 72 58 46 38 31 25 20 18 20 24 32 36 37 38 41 45 44 40 36 31 29 27 24 23 22 20
9 6 15 21 14 16 21 29 32 36 33 29 45 38 48 66 64 63 49 40 41 35 33 25 18 18 27 34 40 42 43 42 42 46 46 42 36 31 29 29 27 27 26 22
5 9 17 10 4 19 14 18 24 54 31 32 32 8 27 53 50 46 46 43 43 40 32 27 23 28 34 40 47 47 44 43 42 45 45 41 35 33 29 28 28 31 29 27
7 7 17 18 14 29 12 13 7 46 53 40 16 41 27 19 20 32 36 43 42 38 31 26 32 40 46 48 49 44 46 45 45 45 44 39 37 36 33 33 34 34 32 26
6 4 23 17 16 21 12 8 8 23 43 45 52 44 34 28 21 21 32 38 38 38 35 38 47 52 52 52 47 47 46 47 47 46 46 45 42 39 40 38 37 34 31 28
21 15 4 43 11 27 22 17 24 23 22 28 23 27 28 26 28 30 30 35 39 43 48 57 58 55 56 51 49 50 50 49 47 47 47 45 44 44 42 40 36 35 33 31
8 5 14 25 47 38 43 36 28 20 20 25 28 26 24 21 28 38 38 39 43 56 66 65 57 57 58 55 54 56 53 49 48 50 48 47 47 46 42 40 38 38 35 31
7 8 10 26 43 51 52 51 52 51 36 24 25 28 33 37 36 36 43 51 58 64 68 70 61 63 64 58 58 56 52 50 50 51 51 50 48 44 40 37 33 30 28 27
10 29 26 14 19 29 50 61 55 49 44 44 41 41 39 43 48 52 61 66 70 73 73 72 66 64 63 62 60 58 56 54 56 55 54 50 46 46 41 36 37 36 34 30
8 16 26 21 20 15 17 20 31 35 37 41 42 47 51 59 68 67 69 71 70 64 64 63 60 62 64 62 61 60 59 55 56 57 54 52 52 53 52 47 44 37 33 30
30 22 35 47 40 24 21 41 53 58 55 53 58 60 63 66 71 77 78 70 65 63 62 61 61 66 63 61 61 59 58 55 54 55 53 53 55 54 50 47 41 39 39 35
49 50 56 59 58 56 56 55 55 62 62 62 57 61 66 69 72 71 66 64 65 66 63 63 64 61 57 58 59 57 55 53 53 51 51 53 53 51 47 40 34 31 31 30
33 36 42 49 61 62 62 65 63 68 64 61 60 59 60 64 68 66 64 65 68 64 56 57 56 54 55 53 52 53 51 49 49 50 52 54 54 53 48 45 42 36 33 30
43 46 42 47 48 50 50 48 50 54 55 58 59 53 53 55 59 60 59 60 58 56 49 50 51 46 43 44 47 50 50 50 50 53 56 58 58 54 50 45 42 39 32 33
29 31 33 37 42 46 50 49 51 54 58 57 56 54 54 56 54 46 44 47 50 46 43 43 35 32 35 39 44 46 48 52 58 60 60 59 55 49 46 44 42 40 38 39
16 20 23 24 27 33 40 43 44 45 45 46 47 46 44 45 43 41 42 43 42 40 33 30 30 33 37 40 44 48 52 57 60 60 57 54 53 51 49 47 44 42 42 42
25 25 25 27 31 34 37 38 40 37 38 39 37 41 41 35 32 34 35 36 29 28 28 27 32 34 38 44 49 54 58 61 61 59 58 57 55 52 48 46 45 45 45 42
24 28 32 35 35 35 39 37 34 30 28 27 22 22 29 31 30 29 35 36 29 28 33 33 33 38 47 52 57 60 62 62 62 61 60 58 55 52 50 48 48 46 44 43
32 30 31 32 32 31 34 36 40 36 30 29 29 26 27 30 34 35 35 35 30 32 38 39 41 46 50 54 59 61 62 62 62 61 60 57 54 53 52 50 48 45 43 42
45 49 51 47 45 40 33 31 33 37 35 32 32 31 33 34 35 38 36 34 36 38 41 43 46 51 54 57 59 61 62 63 63 62 59 57 55 53 50 48 46 44 44 42
50 50 51 50 49 44 39 33 36 33 34 33 32 34 36 34 38 38 36 37 35 38 43 47 50 55 58 60 62 63 63 64 64 62 60 57 56 53 52 50 49 46 44 42
53 53 55 54 51 49 44 40 41 35 35 35 34 36 37 36 36 37 42 41 40 40 45 51 55 57 60 62 65 66 66 66 65 63 62 61 58 55 52 51 49 46 45 44
60 61 59 56 56 56 54 52 49 44 40 38 35 37 39 36 36 39 42 48 50 48 48 55 60 62 64 66 68 69 69 68 68 67 65 62 59 57 56 53 51 50 48 44
41 42 46 49 44 46 49 52 53 51 49 45 45 39 41 40 40 42 45 50 54 54 57 57 61 64 64 67 69 70 71 71 71 69 67 65 62 60 58 55 52 51 50 48
Wind_Direction_850mb
144 132 143 185 196 197 215 221 220 204 214 211 202 196 195 186 196 233 229 246 224 231 238 244 252 259 268 272 271 272 272 272 274 275 275 277 277 279 280 279 276 274 272 271
99 49 61 237 218 214 225 231 244 224 232 218 216 206 193 204 214 238 262 271 274 252 252 263 262 260 260 267 278 277 277 275 271 269 270 271 273 274 274 271 268 267 267 268
203 342 60 286 209 209 211 211 214 226 229 155 201 195 209 216 232 243 255 270 268 254 256 248 231 250 267 274 289 298 296 287 278 271 268 269 267 266 266 264 263 260 258 259
133 102 228 248 311 234 213 223 215 233 183 204 220 220 226 234 243 260 258 262 243 242 235 230 242 271 287 299 298 292 288 281 274 267 262 260 258 258 257 255 252 249 246 242
162 203 301 279 187 176 181 241 218 218 224 217 225 234 248 245 246 252 248 243 237 233 221 228 241 282 303 306 301 294 289 283 271 263 257 254 252 250 247 245 242 237 234 235
126 183 220 255 265 150 92 278 217 210 214 187 163 202 249 251 249 242 236 238 232 219 223 233 261 289 300 306 298 289 287 282 271 260 252 247 245 244 242 238 234 234 231 240
174 220 282 239 162 142 110 233 289 203 210 174 189 223 246 252 250 240 233 227 218 221 230 254 283 292 293 282 281 282 277 275 268 256 247 241 237 235 233 229 228 228 235 234
132 170 263 166 122 166 208 172 115 192 212 215 231 239 240 250 256 231 214 211 220 228 242 272 283 282 279 273 277 273 272 269 261 250 241 234 231 227 224 224 223 226 225 217
188 208 197 177 191 198 175 206 221 219 214 214 226 249 243 238 239 217 221 229 233 240 263 273 275 275 268 267 269 271 267 263 253 242 235 230 228 224 220 221 220 221 213 214
107 255 213 204 214 213 230 240 239 238 248 250 243 236 236 229 229 231 244 247 247 264 269 273 274 276 261 260 264 263 261 256 247 238 232 226 223 223 222 219 214 214 216 217
270 290 290 230 223 230 238 248 252 256 265 254 259 250 252 255 243 248 257 270 272 273 272 276 277 269 252 259 260 258 256 249 240 234 228 224 226 226 219 214 214 216 219 221
221 193 210 222 247 250 247 250 260 269 278 277 276 274 268 262 263 272 277 277 274 273 274 274 270 259 253 259 256 254 250 244 237 231 227 226 221 211 205 203 205 210 207 213
225 205 231 246 245 247 248 247 279 283 280 276 272 271 267 268 274 270 272 276 273 273 274 270 264 256 258 257 252 249 245 239 233 229 226 222 212 207 199 198 206 208 212 215
237 247 264 262 269 275 276 284 283 282 278 276 276 273 268 267 271 275 276 280 277 275 270 265 261 259 258 253 249 245 242 239 233 230 225 217 210 205 204 209 205 206 208 214
255 258 270 283 288 284 283 286 285 282 283 283 283 279 277 277 277 279 277 273 272 268 265 266 264 262 257 251 245 242 235 230 225 223 220 211 206 203 206 206 205 207 203 214
288 282 277 278 284 285 283 283 284 284 286 285 282 275 274 274 272 270 267 263 264 269 271 266 265 264 261 251 238 230 225 223 220 215 207 203 201 203 203 203 208 212 214 216
285 285 287 284 288 292 291 293 290 290 290 284 283 282 275 272 269 268 268 265 265 264 264 267 271 266 249 234 225 221 217 213 207 202 199 199 202 204 206 209 214 219 220 226
290 288 286 282 285 289 294 292 288 284 283 284 279 272 268 268 274 278 270 263 259 262 266 270 263 243 229 220 216 212 208 203 197 196 196 200 204 206 208 213 217 221 224 231
327 315 304 302 298 299 299 303 301 298 294 286 280 276 272 268 270 265 257 255 256 260 269 260 244 229 217 210 206 204 200 196 195 196 199 202 203 207 211 215 220 225 230 234
6 353 350 342 337 331 326 321 312 307 300 291 285 280 274 268 264 259 255 255 259 259 251 241 234 221 208 201 200 196 194 195 197 199 202 204 208 212 216 221 225 228 232 238
352 346 341 338 337 338 332 332 327 319 317 311 304 296 285 273 265 256 251 249 251 246 238 229 216 205 199 194 193 194 195 198 201 203 206 209 212 215 220 225 228 231 236 240
340 339 333 314 313 327 331 333 329 322 316 312 305 296 286 279 270 261 254 250 240 234 230 219 207 201 202 198 198 200 201 204 206 208 211 214 218 222 226 229 232 235 239 242
315 310 311 319 319 307 314 318 323 326 321 312 303 293 283 271 261 256 253 248 239 231 224 216 209 206 206 206 207 207 208 210 211 213 217 221 225 228 230 234 237 239 241 244
308 299 296 293 294 297 285 299 303 313 316 312 306 296 290 283 272 262 252 242 238 234 227 219 215 214 214 214 213 214 215 215 217 219 222 226 229 231 233 236 238 242 245 247
304 298 294 292 285 282 284 278 279 292 300 307 309 302 291 279 271 265 255 242 237 232 227 222 220 221 222 222 220 220 220 221 222 224 226 229 232 234 238 241 243 246 248 251
298 295 290 285 285 285 283 285 282 274 280 293 298 296 288 281 270 260 251 248 239 230 227 226 226 227 227 227 226 226 226 226 226 227 230 232 234 237 241 243 244 247 250 252
312 310 304 294 289 286 285 280 279 277 275 281 282 285 281 276 269 259 250 245 243 239 232 230 230 232 232 233 232 231 231 231 230 232 233 235 236 240 243 245 248 250 251 252